Time,TemperatureF,DewpointF,PressureIn,WindDirection,WindDirectionDegrees,WindSpeedMPH,WindSpeedGustMPH,Humidity,HourlyPrecipIn,Conditions,Clouds,dailyrainin,SoftwareType,DateUTC
2013-03-30 00:02:00,55.0,50.0,30.07,SE,135,3.0,-999.0,84,-99.99,,,-99.99,,2013-03-30 07:02:00,
2013-03-30 00:12:00,55.0,50.0,30.07,SE,135,3.0,-999.0,84,-99.99,,,-99.99,,2013-03-30 07:12:00,
2013-03-30 00:22:00,54.0,49.0,30.05,SE,135,1.0,-999.0,84,-99.99,,,-99.99,,2013-03-30 07:22:00,
2013-03-30 00:32:00,54.0,48.0,30.06,SE,132,2.0,-999.0,81,-99.99,,,-99.99,,2013-03-30 07:32:00,
2013-03-30 00:42:00,54.0,48.0,30.06,SE,132,2.0,-999.0,81,-99.99,,,-99.99,,2013-03-30 07:42:00,
2013-03-30 00:52:00,54.0,48.0,30.06,SE,132,0.0,-999.0,81,-99.99,,,-99.99,,2013-03-30 07:52:00,
2013-03-30 01:01:00,54.0,48.0,30.06,SE,135,1.0,-999.0,80,-99.99,,,-99.99,,2013-03-30 08:01:00,
2013-03-30 01:12:00,54.0,48.0,30.06,SE,135,1.0,-999.0,80,-99.99,,,-99.99,,2013-03-30 08:12:00,
2013-03-30 01:21:00,54.0,48.0,30.05,ESE,122,2.0,-999.0,80,-99.99,,,-99.99,,2013-03-30 08:21:00,
2013-03-30 01:32:00,54.0,48.0,30.06,SE,129,1.0,-999.0,80,-99.99,,,-99.99,,2013-03-30 08:32:00,
2013-03-30 01:42:00,54.0,48.0,30.06,SE,129,1.0,-999.0,80,-99.99,,,-99.99,,2013-03-30 08:42:00,
2013-03-30 01:52:00,54.0,49.0,30.06,SE,132,1.0,-999.0,82,-99.99,,,-99.99,,2013-03-30 08:52:00,
2013-03-30 02:01:00,53.0,48.0,30.06,SE,132,0.0,-999.0,84,-99.99,,,-99.99,,2013-03-30 09:01:00,
2013-03-30 02:12:00,53.0,48.0,30.06,SE,132,0.0,-999.0,84,-99.99,,,-99.99,,2013-03-30 09:12:00,
2013-03-30 02:22:00,53.0,49.0,30.06,SE,132,0.0,-999.0,85,-99.99,,,-99.99,,2013-03-30 09:22:00,
2013-03-30 02:33:00,53.0,49.0,30.06,SE,132,1.0,-999.0,86,-99.99,,,-99.99,,2013-03-30 09:33:00,
2013-03-30 02:42:00,53.0,49.0,30.06,SE,132,1.0,-999.0,86,-99.99,,,-99.99,,2013-03-30 09:42:00,
2013-03-30 02:52:00,52.0,49.0,30.05,SE,132,1.0,-999.0,88,-99.99,,,-99.99,,2013-03-30 09:52:00,
2013-03-30 03:02:00,51.0,48.0,30.06,SE,132,3.0,-999.0,89,-99.99,,,-99.99,,2013-03-30 10:02:00,
2013-03-30 03:12:00,51.0,48.0,30.06,SE,132,3.0,-999.0,89,-99.99,,,-99.99,,2013-03-30 10:12:00,
2013-03-30 03:22:00,51.0,48.0,30.05,SE,132,0.0,-999.0,89,-99.99,,,-99.99,,2013-03-30 10:22:00,
2013-03-30 03:32:00,51.0,48.0,30.06,SE,142,1.0,-999.0,89,-99.99,,,-99.99,,2013-03-30 10:32:00,
2013-03-30 03:42:00,51.0,48.0,30.06,SE,142,1.0,-999.0,89,-99.99,,,-99.99,,2013-03-30 10:42:00,
2013-03-30 03:52:00,51.0,48.0,30.05,SE,136,2.0,-999.0,90,-99.99,,,-99.99,,2013-03-30 10:52:00,
2013-03-30 04:03:00,51.0,48.0,30.04,SE,135,0.0,-999.0,91,-99.99,,,-99.99,,2013-03-30 11:03:00,
2013-03-30 04:12:00,51.0,48.0,30.04,SE,135,0.0,-999.0,91,-99.99,,,-99.99,,2013-03-30 11:12:00,
2013-03-30 04:22:00,51.0,48.0,30.03,SE,135,0.0,-999.0,91,-99.99,,,-99.99,,2013-03-30 11:22:00,
2013-03-30 04:32:00,51.0,48.0,30.03,SE,135,0.0,-999.0,91,-99.99,,,-99.99,,2013-03-30 11:32:00,
2013-03-30 04:42:00,51.0,48.0,30.03,SE,135,0.0,-999.0,91,-99.99,,,-99.99,,2013-03-30 11:42:00,
2013-03-30 04:52:00,51.0,48.0,30.03,SE,135,0.0,-999.0,91,-99.99,,,-99.99,,2013-03-30 11:52:00,
2013-03-30 05:02:00,51.0,48.0,30.02,SE,135,0.0,-999.0,91,-99.99,,,-99.99,,2013-03-30 12:02:00,
2013-03-30 05:12:00,51.0,48.0,30.02,SE,135,0.0,-999.0,91,-99.99,,,-99.99,,2013-03-30 12:12:00,
2013-03-30 05:22:00,50.0,47.0,30.02,SE,135,0.0,-999.0,91,-99.99,,,-99.99,,2013-03-30 12:22:00,
2013-03-30 05:32:00,50.0,47.0,30.01,SE,135,0.0,-999.0,91,-99.99,,,-99.99,,2013-03-30 12:32:00,
2013-03-30 05:42:00,50.0,47.0,30.01,SE,135,0.0,-999.0,91,-99.99,,,-99.99,,2013-03-30 12:42:00,
2013-03-30 05:52:00,50.0,47.0,30.01,SE,135,0.0,-999.0,91,-99.99,,,-99.99,,2013-03-30 12:52:00,
2013-03-30 06:02:00,50.0,47.0,30.02,SE,135,0.0,-999.0,91,-99.99,,,-99.99,,2013-03-30 13:02:00,
2013-03-30 06:12:00,50.0,47.0,30.02,SE,135,0.0,-999.0,91,-99.99,,,-99.99,,2013-03-30 13:12:00,
2013-03-30 06:22:00,50.0,47.0,30.01,SE,135,0.0,-999.0,91,-99.99,,,-99.99,,2013-03-30 13:22:00,
2013-03-30 06:32:00,50.0,47.0,30.02,SE,135,0.0,-999.0,91,-99.99,,,-99.99,,2013-03-30 13:32:00,
2013-03-30 06:42:00,50.0,47.0,30.02,SE,135,0.0,-999.0,91,-99.99,,,-99.99,,2013-03-30 13:42:00,
2013-03-30 06:52:00,50.0,48.0,30.03,SSE,155,0.0,-999.0,92,-99.99,,,-99.99,,2013-03-30 13:52:00,
2013-03-30 07:02:00,49.0,47.0,30.03,SSE,155,0.0,-999.0,92,-99.99,,,-99.99,,2013-03-30 14:02:00,
2013-03-30 07:11:00,49.0,47.0,30.03,SSE,155,0.0,-999.0,92,-99.99,,,-99.99,,2013-03-30 14:11:00,
2013-03-30 07:22:00,49.0,47.0,30.04,SSE,155,0.0,-999.0,92,-99.99,,,-99.99,,2013-03-30 14:22:00,
2013-03-30 07:32:00,49.0,47.0,30.04,SSE,155,0.0,-999.0,92,-99.99,,,-99.99,,2013-03-30 14:32:00,
2013-03-30 07:42:00,49.0,47.0,30.04,SSE,155,0.0,-999.0,92,-99.99,,,-99.99,,2013-03-30 14:42:00,
2013-03-30 07:52:00,50.0,48.0,30.05,SSE,155,0.0,-999.0,92,-99.99,,,-99.99,,2013-03-30 14:52:00,
2013-03-30 08:02:00,50.0,48.0,30.05,SSE,155,0.0,-999.0,93,-99.99,,,-99.99,,2013-03-30 15:02:00,
2013-03-30 08:12:00,50.0,48.0,30.05,SSE,155,0.0,-999.0,93,-99.99,,,-99.99,,2013-03-30 15:12:00,
2013-03-30 08:22:00,50.0,48.0,30.06,SSE,155,0.0,-999.0,93,-99.99,,,-99.99,,2013-03-30 15:22:00,
2013-03-30 08:33:00,50.0,48.0,30.06,SSE,155,0.0,-999.0,92,-99.99,,,-99.99,,2013-03-30 15:33:00,
2013-03-30 08:42:00,50.0,48.0,30.06,SSE,155,0.0,-999.0,92,-99.99,,,-99.99,,2013-03-30 15:42:00,
2013-03-30 08:52:00,51.0,49.0,30.07,SSE,155,0.0,-999.0,92,-99.99,,,-99.99,,2013-03-30 15:52:00,
2013-03-30 09:03:00,51.0,49.0,30.07,SSE,155,0.0,-999.0,92,-99.99,,,-99.99,,2013-03-30 16:03:00,
2013-03-30 09:12:00,51.0,48.0,30.07,SSE,155,0.0,-999.0,91,-99.99,,,-99.99,,2013-03-30 16:12:00,
2013-03-30 09:22:00,51.0,48.0,30.07,SSE,155,0.0,-999.0,91,-99.99,,,-99.99,,2013-03-30 16:22:00,
2013-03-30 09:32:00,52.0,49.0,30.06,SSE,155,0.0,-999.0,91,-99.99,,,-99.99,,2013-03-30 16:32:00,
2013-03-30 09:42:00,52.0,49.0,30.06,SSE,155,0.0,-999.0,91,-99.99,,,-99.99,,2013-03-30 16:42:00,
2013-03-30 09:52:00,52.0,49.0,30.07,SSE,155,0.0,-999.0,90,-99.99,,,-99.99,,2013-03-30 16:52:00,
2013-03-30 10:02:00,52.0,49.0,30.07,SSE,155,0.0,-999.0,90,-99.99,,,-99.99,,2013-03-30 17:02:00,
2013-03-30 10:13:00,52.0,49.0,30.07,SSE,155,0.0,-999.0,90,-99.99,,,-99.99,,2013-03-30 17:13:00,
2013-03-30 10:22:00,53.0,50.0,30.07,SSE,155,0.0,-999.0,89,-99.99,,,-99.99,,2013-03-30 17:22:00,
2013-03-30 10:32:00,53.0,50.0,30.07,SSE,155,0.0,-999.0,88,-99.99,,,-99.99,,2013-03-30 17:32:00,
2013-03-30 10:42:00,53.0,50.0,30.07,SSE,155,0.0,-999.0,88,-99.99,,,-99.99,,2013-03-30 17:42:00,
2013-03-30 10:52:00,54.0,50.0,30.07,SSE,155,0.0,-999.0,87,-99.99,,,-99.99,,2013-03-30 17:52:00,
2013-03-30 11:02:00,55.0,51.0,30.07,SSE,155,0.0,-999.0,86,-99.99,,,-99.99,,2013-03-30 18:02:00,
2013-03-30 11:12:00,56.0,52.0,30.08,SSE,155,0.0,-999.0,85,-99.99,,,-99.99,,2013-03-30 18:12:00,
2013-03-30 11:21:00,56.0,52.0,30.08,SSE,155,0.0,-999.0,85,-99.99,,,-99.99,,2013-03-30 18:21:00,
2013-03-30 11:32:00,56.0,51.0,30.07,SSW,204,0.0,-999.0,83,-99.99,,,-99.99,,2013-03-30 18:32:00,
2013-03-30 11:42:00,56.0,51.0,30.07,SSW,204,0.0,-999.0,83,-99.99,,,-99.99,,2013-03-30 18:42:00,
2013-03-30 11:52:00,58.0,52.0,30.08,NNW,331,0.0,-999.0,81,-99.99,,,-99.99,,2013-03-30 18:52:00,
2013-03-30 12:02:00,58.0,52.0,30.08,NNW,331,0.0,-999.0,81,-99.99,,,-99.99,,2013-03-30 19:02:00,
2013-03-30 12:12:00,58.0,52.0,30.08,NNW,331,0.0,-999.0,81,-99.99,,,-99.99,,2013-03-30 19:12:00,
2013-03-30 12:21:00,58.0,52.0,30.07,ENE,61,0.0,-999.0,81,-99.99,,,-99.99,,2013-03-30 19:21:00,
2013-03-30 12:32:00,58.0,52.0,30.07,ENE,61,0.0,-999.0,81,-99.99,,,-99.99,,2013-03-30 19:32:00,
2013-03-30 12:42:00,58.0,52.0,30.07,ENE,61,0.0,-999.0,81,-99.99,,,-99.99,,2013-03-30 19:42:00,
2013-03-30 12:52:00,58.0,52.0,30.07,NNW,345,1.0,-999.0,79,-99.99,,,-99.99,,2013-03-30 19:52:00,
2013-03-30 13:02:00,59.0,52.0,30.07,NNW,345,0.0,-999.0,79,-99.99,,,-99.99,,2013-03-30 20:02:00,
2013-03-30 13:12:00,59.0,52.0,30.07,NNW,345,0.0,-999.0,79,-99.99,,,-99.99,,2013-03-30 20:12:00,
2013-03-30 13:21:00,58.0,53.0,30.07,North,355,0.0,-999.0,83,-99.99,,,-99.99,,2013-03-30 20:21:00,
2013-03-30 13:32:00,58.0,53.0,30.07,North,355,0.0,-999.0,83,-99.99,,,-99.99,,2013-03-30 20:32:00,
2013-03-30 13:42:00,58.0,53.0,30.07,North,355,0.0,-999.0,83,-99.99,,,-99.99,,2013-03-30 20:42:00,
2013-03-30 13:52:00,59.0,54.0,30.06,North,355,0.0,-999.0,83,-99.99,,,-99.99,,2013-03-30 20:52:00,
2013-03-30 14:02:00,59.0,54.0,30.06,North,355,0.0,-999.0,83,-99.99,,,-99.99,,2013-03-30 21:02:00,
2013-03-30 14:12:00,59.0,54.0,30.06,North,355,0.0,-999.0,83,-99.99,,,-99.99,,2013-03-30 21:12:00,
2013-03-30 14:22:00,59.0,54.0,30.06,North,355,0.0,-999.0,84,-99.99,,,-99.99,,2013-03-30 21:22:00,
2013-03-30 14:33:00,60.0,55.0,30.05,NW,312,0.0,-999.0,85,-99.99,,,-99.99,,2013-03-30 21:33:00,
2013-03-30 14:43:00,60.0,55.0,30.05,NW,312,0.0,-999.0,85,-99.99,,,-99.99,,2013-03-30 21:43:00,
2013-03-30 14:52:00,62.0,56.0,30.04,NW,311,1.0,-999.0,80,-99.99,,,-99.99,,2013-03-30 21:52:00,
2013-03-30 15:02:00,63.0,55.0,30.04,SSW,205,0.0,-999.0,74,-99.99,,,-99.99,,2013-03-30 22:02:00,
2013-03-30 15:12:00,63.0,55.0,30.04,SSW,205,0.0,-999.0,74,-99.99,,,-99.99,,2013-03-30 22:12:00,
2013-03-30 15:23:00,64.0,54.0,30.03,WSW,242,0.0,-999.0,71,-99.99,,,-99.99,,2013-03-30 22:23:00,
2013-03-30 15:32:00,64.0,55.0,30.02,WSW,246,0.0,-999.0,73,-99.99,,,-99.99,,2013-03-30 22:32:00,
2013-03-30 15:43:00,64.0,55.0,30.02,WSW,246,0.0,-999.0,73,-99.99,,,-99.99,,2013-03-30 22:43:00,
2013-03-30 15:53:00,65.0,55.0,30.01,NNW,328,0.0,-999.0,71,-99.99,,,-99.99,,2013-03-30 22:53:00,
2013-03-30 16:02:00,67.0,56.0,30.01,South,186,0.0,-999.0,67,-99.99,,,-99.99,,2013-03-30 23:02:00,
2013-03-30 16:12:00,67.0,56.0,30.01,South,186,0.0,-999.0,67,-99.99,,,-99.99,,2013-03-30 23:12:00,
2013-03-30 16:22:00,68.0,56.0,30.01,South,182,0.0,-999.0,65,-99.99,,,-99.99,,2013-03-30 23:22:00,
2013-03-30 16:32:00,68.0,56.0,30.01,NNW,342,0.0,-999.0,65,-99.99,,,-99.99,,2013-03-30 23:32:00,
2013-03-30 16:42:00,68.0,56.0,30.01,NNW,342,0.0,-999.0,65,-99.99,,,-99.99,,2013-03-30 23:42:00,
2013-03-30 16:52:00,67.0,54.0,30.00,SSW,199,1.0,-999.0,63,-99.99,,,-99.99,,2013-03-30 23:52:00,
2013-03-30 17:02:00,66.0,54.0,30.01,WNW,296,0.0,-999.0,65,-99.99,,,-99.99,,2013-03-31 00:02:00,
2013-03-30 17:12:00,66.0,54.0,30.01,WNW,296,0.0,-999.0,65,-99.99,,,-99.99,,2013-03-31 00:12:00,
2013-03-30 17:22:00,64.0,53.0,30.01,NNE,14,0.0,-999.0,68,-99.99,,,-99.99,,2013-03-31 00:22:00,
2013-03-30 17:32:00,62.0,52.0,30.00,NNW,345,1.0,-999.0,70,-99.99,,,-99.99,,2013-03-31 00:32:00,
2013-03-30 17:42:00,62.0,52.0,30.00,NNW,345,1.0,-999.0,70,-99.99,,,-99.99,,2013-03-31 00:42:00,
2013-03-30 17:52:00,60.0,51.0,30.00,NNW,343,0.0,-999.0,72,-99.99,,,-99.99,,2013-03-31 00:52:00,
2013-03-30 18:02:00,60.0,52.0,30.00,NNW,343,0.0,-999.0,74,-99.99,,,-99.99,,2013-03-31 01:02:00,
2013-03-30 18:12:00,60.0,52.0,30.00,NNW,343,0.0,-999.0,74,-99.99,,,-99.99,,2013-03-31 01:12:00,
2013-03-30 18:22:00,60.0,51.0,30.01,NNW,343,0.0,-999.0,73,-99.99,,,-99.99,,2013-03-31 01:22:00,
2013-03-30 18:32:00,60.0,51.0,30.02,NNW,343,0.0,-999.0,73,-99.99,,,-99.99,,2013-03-31 01:32:00,
2013-03-30 18:42:00,60.0,51.0,30.02,NNW,343,0.0,-999.0,73,-99.99,,,-99.99,,2013-03-31 01:42:00,
2013-03-30 18:52:00,60.0,52.0,30.02,NNW,343,0.0,-999.0,74,-99.99,,,-99.99,,2013-03-31 01:52:00,
2013-03-30 19:02:00,59.0,50.0,30.03,WNW,294,0.0,-999.0,73,-99.99,,,-99.99,,2013-03-31 02:02:00,
2013-03-30 19:12:00,59.0,50.0,30.03,WNW,294,0.0,-999.0,73,-99.99,,,-99.99,,2013-03-31 02:12:00,
2013-03-30 19:22:00,59.0,51.0,30.01,WNW,294,0.0,-999.0,75,-99.99,,,-99.99,,2013-03-31 02:22:00,
2013-03-30 19:32:00,58.0,50.0,30.02,WNW,296,0.0,-999.0,75,-99.99,,,-99.99,,2013-03-31 02:32:00,
2013-03-30 19:42:00,58.0,50.0,30.02,WNW,296,0.0,-999.0,75,-99.99,,,-99.99,,2013-03-31 02:42:00,
2013-03-30 19:52:00,58.0,51.0,30.02,WNW,296,0.0,-999.0,77,-99.99,,,-99.99,,2013-03-31 02:52:00,
2013-03-30 20:02:00,58.0,52.0,30.03,WNW,296,0.0,-999.0,80,-99.99,,,-99.99,,2013-03-31 03:02:00,
2013-03-30 20:12:00,58.0,52.0,30.03,WNW,296,0.0,-999.0,80,-99.99,,,-99.99,,2013-03-31 03:12:00,
2013-03-30 20:22:00,57.0,52.0,30.02,WNW,296,0.0,-999.0,84,-99.99,,,-99.99,,2013-03-31 03:22:00,
2013-03-30 20:32:00,56.0,52.0,30.02,WNW,296,0.0,-999.0,85,-99.99,,,-99.99,,2013-03-31 03:32:00,
2013-03-30 20:43:00,56.0,52.0,30.02,WNW,296,0.0,-999.0,85,-99.99,,,-99.99,,2013-03-31 03:43:00,
2013-03-30 20:53:00,56.0,52.0,30.03,WNW,296,0.0,-999.0,87,-99.99,,,-99.99,,2013-03-31 03:53:00,
2013-03-30 21:02:00,55.0,-99.9,30.03,WNW,296,0.0,-999.0,89,-99.99,,,-99.99,,2013-03-31 04:02:00,
2013-03-30 21:12:00,55.0,52.0,30.03,WNW,296,0.0,-999.0,89,-99.99,,,-99.99,,2013-03-31 04:12:00,
2013-03-30 21:22:00,55.0,52.0,30.03,WNW,296,0.0,-999.0,90,-99.99,,,-99.99,,2013-03-31 04:22:00,
2013-03-30 21:32:00,55.0,52.0,30.03,WNW,296,0.0,-999.0,90,-99.99,,,-99.99,,2013-03-31 04:32:00,
2013-03-30 21:42:00,55.0,52.0,30.03,WNW,296,0.0,-999.0,90,-99.99,,,-99.99,,2013-03-31 04:42:00,
2013-03-30 21:52:00,55.0,52.0,30.01,WNW,296,0.0,-999.0,91,-99.99,,,-99.99,,2013-03-31 04:52:00,
2013-03-30 22:02:00,55.0,52.0,30.04,WNW,296,0.0,-999.0,91,-99.99,,,-99.99,,2013-03-31 05:02:00,
2013-03-30 22:12:00,55.0,52.0,30.04,WNW,296,0.0,-999.0,91,-99.99,,,-99.99,,2013-03-31 05:12:00,
2013-03-30 22:22:00,55.0,52.0,30.03,WNW,296,0.0,-999.0,91,-99.99,,,-99.99,,2013-03-31 05:22:00,
2013-03-30 22:32:00,54.0,52.0,30.03,WNW,296,0.0,-999.0,92,-99.99,,,-99.99,,2013-03-31 05:32:00,
2013-03-30 22:42:00,54.0,52.0,30.03,WNW,296,0.0,-999.0,92,-99.99,,,-99.99,,2013-03-31 05:42:00,
2013-03-30 22:52:00,54.0,52.0,30.02,WNW,296,0.0,-999.0,92,-99.99,,,-99.99,,2013-03-31 05:52:00,
2013-03-30 23:01:00,54.0,52.0,30.03,WNW,296,0.0,-999.0,92,-99.99,,,-99.99,,2013-03-31 06:01:00,
2013-03-30 23:12:00,54.0,52.0,30.03,WNW,296,0.0,-999.0,92,-99.99,,,-99.99,,2013-03-31 06:12:00,
2013-03-30 23:22:00,54.0,52.0,30.03,WNW,296,0.0,-999.0,93,-99.99,,,-99.99,,2013-03-31 06:22:00,
2013-03-30 23:32:00,54.0,52.0,30.03,WNW,296,0.0,-999.0,93,-99.99,,,-99.99,,2013-03-31 06:32:00,
2013-03-30 23:42:00,54.0,52.0,30.03,WNW,296,0.0,-999.0,93,-99.99,,,-99.99,,2013-03-31 06:42:00,
2013-03-30 23:52:00,54.0,52.0,30.03,WNW,296,0.0,-999.0,93,-99.99,,,-99.99,,2013-03-31 06:52:00,